Location: The Saddle
(36.8333°N, 80.3417°W)
Time: 16:50:18
(UTC-05:00)

A-11 Canister half - All Passes

Search period start: 30 January 2023 00:00
Search period end: 09 February 2023 00:00
Orbit: 1525 x 1683 km, 47.3° (Epoch: 30 January)

Date Brightness Start Highest point End Pass type
(mag) Time Alt. Az. Time Alt. Az. Time Alt. Az.
30 Jan - 05:08:42 10° S 05:16:39 33° SE 05:24:38 10° ENE visible
30 Jan - 07:11:38 10° WSW 07:20:57 83° NNW 07:30:27 10° ENE daylight
30 Jan - 09:18:02 10° W 09:26:57 47° N 09:36:07 10° ENE daylight
30 Jan - 11:24:25 10° WNW 11:33:39 52° NNE 11:43:10 10° E daylight
30 Jan - 13:29:39 10° WNW 13:39:15 77° SW 13:49:11 10° SE daylight
30 Jan - 15:36:17 10° W 15:43:18 23° SW 15:50:28 10° S daylight
31 Jan - 04:47:15 10° S 04:55:02 31° SE 05:02:49 10° ENE visible
31 Jan - 06:49:56 10° WSW 06:59:15 86° NW 07:08:44 10° ENE visible
31 Jan - 08:56:15 10° W 09:05:10 47° N 09:14:20 10° ENE daylight
31 Jan - 11:02:42 10° WNW 11:11:53 51° NNE 11:21:20 10° E daylight
31 Jan - 13:07:57 10° WNW 13:17:33 80° SW 13:27:28 10° SE daylight
31 Jan - 15:14:23 10° WNW 15:21:38 24° SW 15:29:05 10° S daylight
01 Feb - 04:25:48 10° S 04:33:24 29° SE 04:40:59 10° ENE visible
01 Feb - 06:28:14 10° SW 06:37:33 89° NW 06:47:01 10° ENE visible
01 Feb - 08:34:28 10° W 08:43:24 48° N 08:52:33 10° ENE daylight
01 Feb - 10:40:59 10° WNW 10:50:06 50° NNE 10:59:30 10° E daylight
01 Feb - 12:46:14 10° WNW 12:55:51 83° SW 13:05:46 10° SE daylight
01 Feb - 14:52:31 10° WNW 15:00:00 26° SW 15:07:40 10° S daylight
02 Feb - 04:04:23 10° S 04:11:47 27° SE 04:19:09 10° ENE visible
02 Feb - 06:06:32 10° SW 06:15:52 88° SE 06:25:17 10° ENE visible
02 Feb - 08:12:42 10° W 08:21:38 48° NNW 08:30:47 10° ENE daylight
02 Feb - 10:19:15 10° WNW 10:28:20 49° NNE 10:37:40 10° E daylight
02 Feb - 12:24:33 10° WNW 12:34:07 86° SW 12:44:01 10° SE daylight
02 Feb - 14:30:39 10° WNW 14:38:21 28° SW 14:46:14 10° S daylight
03 Feb - 03:42:59 10° S 03:50:09 26° SE 03:57:18 10° ENE visible
03 Feb - 05:44:52 10° SW 05:54:10 85° SE 06:03:35 10° ENE visible
03 Feb - 07:50:55 10° W 07:59:52 49° NNW 08:09:00 10° ENE daylight
03 Feb - 09:57:32 10° WNW 10:06:34 48° NNE 10:15:50 10° E daylight
03 Feb - 12:02:51 10° WNW 12:12:25 89° SSW 12:22:18 10° SE daylight
03 Feb - 14:08:49 10° WNW 14:16:41 29° SW 14:24:46 10° S daylight
04 Feb - 03:21:36 10° S 03:28:32 24° SE 03:35:25 10° ENE visible
04 Feb - 05:23:11 10° SW 05:32:29 82° SE 05:41:51 10° ENE visible
04 Feb - 07:29:08 10° W 07:38:06 50° NNW 07:47:15 10° ENE daylight
04 Feb - 09:35:48 10° WNW 09:44:47 48° N 09:54:00 10° E daylight
04 Feb - 11:41:10 10° WNW 11:50:42 88° NE 12:00:34 10° SE daylight
04 Feb - 13:47:00 10° WNW 13:55:02 31° SW 14:03:19 10° S daylight
05 Feb - 03:00:15 10° S 03:06:55 22° SE 03:13:32 10° E visible
05 Feb - 05:01:30 10° SW 05:10:48 78° SE 05:20:08 10° ENE visible
05 Feb - 07:07:21 10° W 07:16:21 51° NNW 07:25:30 10° ENE daylight
05 Feb - 09:14:03 10° WNW 09:23:01 47° N 09:32:11 10° E daylight
05 Feb - 11:19:28 10° WNW 11:28:59 85° NNE 11:38:48 10° ESE daylight
05 Feb - 13:25:11 10° WNW 13:33:23 33° SW 13:41:48 10° S daylight
06 Feb - 02:38:56 10° S 02:45:18 21° SE 02:51:36 10° E visible
06 Feb - 04:39:51 10° SW 04:49:07 75° SE 04:58:26 10° ENE visible
06 Feb - 06:45:35 10° W 06:54:35 52° NNW 07:03:44 10° ENE visible
06 Feb - 08:52:19 10° WNW 09:01:14 46° N 09:10:21 10° E daylight
06 Feb - 10:57:46 10° WNW 11:07:16 82° NNE 11:17:04 10° ESE daylight
06 Feb - 13:03:24 10° WNW 13:11:43 35° SW 13:20:17 10° SSE daylight
07 Feb - 02:17:39 10° SSE 02:23:41 19° SE 02:29:39 10° E visible
07 Feb - 04:18:11 10° SW 04:27:27 72° SE 04:36:43 10° ENE visible
07 Feb - 06:23:47 10° W 06:32:50 53° NNW 06:42:00 10° ENE visible
07 Feb - 08:30:34 10° WNW 08:39:27 46° N 08:48:32 10° E daylight
07 Feb - 10:36:05 10° WNW 10:45:33 79° NNE 10:55:18 10° ESE daylight
07 Feb - 12:41:37 10° WNW 12:50:04 37° SW 12:58:46 10° SSE daylight
08 Feb - 01:56:23 10° SSE 02:02:03 18° SE 02:07:40 10° E visible
08 Feb - 03:56:32 10° SW 04:05:47 69° SE 04:14:59 10° ENE visible
08 Feb - 06:02:01 10° W 06:11:05 54° NNW 06:20:15 10° ENE visible
08 Feb - 08:08:49 10° WNW 08:17:41 45° N 08:26:43 10° ENE daylight
08 Feb - 10:14:23 10° WNW 10:23:49 76° NNE 10:33:33 10° ESE daylight
08 Feb - 12:19:51 10° WNW 12:28:25 39° SW 12:37:13 10° SSE daylight
